DMSP 5D-3 F16 (USA 172) 1 28054U 03048A 26255.17399633 .00000023 00000+0 35600-4 0 9997 2 28054 98.9867 279.5673 0005964 259.1763 180.4917 14.14490192181784 METEOSAT-9 (MSG-2) 1 28912U 05049B 26255.08946080 .00000113 00000+0 00000+0 0 9998 2 28912 9.5547 53.2842 0001893 347.3065 28.4077 1.00273600007876 DMSP 5D-3 F17 (USA 191) 1 29522U 06050A 26255.21499522 .00000083 00000+0 65474-4 0 9995 2 29522 98.7424 260.0214 0010370 161.2644 198.8913 14.15006855024736 FENGYUN 3A 1 32958U 08026A 26254.81204544 .00000040 00000+0 39642-4 0 9991 2 32958 98.6928 194.0393 0007710 235.0648 124.9804 14.19586278947697 EWS-G3 (GOES 14) 1 35491U 09033A 26255.14011263 -.00000154 00000+0 00000+0 0 9994 2 35491 1.9086 81.8193 0002117 90.4866 314.3714 1.00071615007463 DMSP 5D-3 F18 (USA 210) 1 35951U 09057A 26255.19105541 .00000156 00000+0 10397-3 0 9994 2 35951 98.9142 235.8119 0011357 10.1138 350.0261 14.14940159871896 EWS-G2 (GOES 15) 1 36411U 10008A 26255.16425447 .00000008 00000+0 00000+0 0 9993 2 36411 1.5126 81.8555 0005151 80.3249 311.4374 1.00271451060518 FENGYUN 3B 1 37214U 10059A 26255.22021133 -.00000030 00000+0 81524-5 0 9994 2 37214 98.9547 301.5707 0021192 301.7554 138.2458 14.14855898819736 SUOMI NPP 1 37849U 11061A 26255.17891277 .00000034 00000+0 37318-4 0 9994 2 37849 98.7999 195.4760 0002845 79.2183 280.9313 14.19532645770780 METEOSAT-10 (MSG-3) 1 38552U 12035B 26255.15168772 -.00000019 00000+0 00000+0 0 9990 2 38552 4.8735 60.5326 0000824 105.1811 240.1295 1.00270644051727 METOP-B 1 38771U 12049A 26255.19230987 .00000064 00000+0 49160-4 0 9994 2 38771 98.6421 304.9206 0003456 95.4847 264.6725 14.21458570725628 INSAT-3D 1 39216U 13038B 26254.97822361 -.00000353 00000+0 00000+0 0 9993 2 39216 2.1440 81.3515 0001300 111.9148 279.4075 1.00273038047959 FENGYUN 3C 1 39260U 13052A 26255.18384617 .00000046 00000+0 44586-4 0 9999 2 39260 98.5094 225.1070 0015483 129.9057 230.3481 14.15771129670875 METEOR-M 2 1 40069U 14037A 26255.21742641 -.00000181 00000+0 63342-4 0 9993 2 40069 98.5218 227.9168 0006408 134.3137 225.8568 14.21481948631681 HIMAWARI-8 1 40267U 14060A 26255.17942118 -.00000290 00000+0 00000+0 0 9993 2 40267 0.0195 68.9053 0001162 130.7391 356.8167 1.00272128043636 FENGYUN 2G 1 40367U 14090A 26255.02888053 -.00000315 00000+0 00000+0 0 9996 2 40367 5.8530 71.7256 0003991 186.8963 202.5503 1.00274569042876 METEOSAT-11 (MSG-4) 1 40732U 15034A 26255.15350773 .00000048 00000+0 00000+0 0 9990 2 40732 3.4136 70.4793 0000645 71.3267 273.8616 1.00272216008086 ELEKTRO-L 2 1 41105U 15074A 26254.79238764 -.00000130 00000+0 00000+0 0 9996 2 41105 6.9066 69.4247 0001848 195.4832 356.6388 1.00271960039372 SENTINEL-3A 1 41335U 16011A 26255.17758014 .00000059 00000+0 42280-4 0 9991 2 41335 98.6288 321.2991 0001093 105.8058 254.3243 14.26734404550464 INSAT-3DR 1 41752U 16054A 26255.14747360 -.00000092 00000+0 00000+0 0 9997 2 41752 0.0257 109.2023 0011669 155.5973 213.4660 1.00272231036694 HIMAWARI-9 1 41836U 16064A 26255.17950786 -.00000289 00000+0 00000+0 0 9990 2 41836 0.0329 276.1268 0001074 275.9331 4.4996 1.00275042036082 GOES 16 1 41866U 16071A 26255.13097432 -.00000106 00000+0 00000+0 0 9995 2 41866 0.5504 84.5825 0001698 131.2749 77.7617 1.00272447035970 FENGYUN 4A 1 41882U 16077A 26254.96223358 -.00000372 00000+0 00000+0 0 9992 2 41882 2.5366 79.1790 0008054 166.6121 214.7728 1.00268142035801 CYGFM05 1 41884U 16078A 26254.78081885 .00023824 00000+0 27992-3 0 9991 2 41884 34.9565 45.5674 0005559 265.2157 94.7933 15.60430546542271 CYGFM04 1 41885U 16078B 26254.64081951 .00032966 00000+0 30367-3 0 9998 2 41885 34.9322 9.3165 0004209 315.5872 44.4517 15.66557970542547 CYGFM02 1 41886U 16078C 26254.63727785 .00042182 00000+0 31970-3 0 9992 2 41886 34.9406 0.8739 0004664 327.6009 32.4433 15.71237494542743 CYGFM01 1 41887U 16078D 26254.79192425 .00025129 00000+0 28589-3 0 9991 2 41887 34.9394 45.7863 0005202 260.8913 99.1224 15.61258769542236 CYGFM08 1 41888U 16078E 26254.71243397 .00030067 00000+0 29921-3 0 9997 2 41888 34.9435 23.3253 0006051 294.1036 65.9057 15.64636744542519 CYGFM07 1 41890U 16078G 26254.66565030 .00030047 00000+0 29769-3 0 9993 2 41890 34.9448 11.8968 0004770 311.0386 48.9928 15.64757094542536 CYGFM03 1 41891U 16078H 26254.70128374 .00029768 00000+0 29517-3 0 9994 2 41891 34.9407 13.5762 0004194 296.9468 63.0830 15.64740068542516 FENGYUN 3D 1 43010U 17072A 26255.18325404 .00000051 00000+0 46148-4 0 9994 2 43010 99.0229 231.2197 0001951 127.9525 232.1827 14.19754931457334 NOAA 20 (JPSS-1) 1 43013U 17073A 26255.12206551 .00000019 00000+0 30176-4 0 9991 2 43013 98.7810 193.8252 0001607 52.9635 307.1688 14.19525406456803 GOES 17 1 43226U 18022A 26255.13400764 -.00000197 00000+0 00000+0 0 9991 2 43226 1.1553 84.2471 0000834 130.4475 95.2021 1.00272399031296 SENTINEL-3B 1 43437U 18039A 26255.15071916 .00000059 00000+0 42431-4 0 9993 2 43437 98.6285 321.4222 0001429 79.1773 280.9568 14.26736730436524 FENGYUN 2H 1 43491U 18050A 26255.16737448 -.00000143 00000+0 00000+0 0 9992 2 43491 3.2491 77.9814 0002728 152.1786 260.5857 1.00271983030318 METOP-C 1 43689U 18087A 26255.13733593 .00000060 00000+0 47201-4 0 9991 2 43689 98.6958 313.1474 0000551 53.0110 307.1118 14.21509890407181 GEO-KOMPSAT-2A 1 43823U 18100A 26254.96327359 -.00000359 00000+0 00000+0 0 9999 2 43823 0.0353 17.3458 0001820 99.0791 349.5888 1.00274303028507 METEOR-M2 2 1 44387U 19038A 26255.20880816 -.00000055 00000+0 38888-5 0 9990 2 44387 98.9231 243.8155 0002162 104.2917 255.8501 14.24385293373687 FENGYUN 3E 1 49008U 21062A 26255.22815683 -.00000315 00000+0 12750-3 0 9994 2 49008 98.7539 257.6847 0001545 154.4322 205.6931 14.19909413268934 GOES 18 1 51850U 22021A 26255.12456095 .00000081 00000+0 00000+0 0 9995 2 51850 0.0403 314.5583 0000531 276.0642 28.3640 1.00273283007469 NOAA 21 (JPSS-2) 1 54234U 22150A 26255.15342691 .00000025 00000+0 32696-4 0 9995 2 54234 98.7094 192.4906 0001231 347.6968 12.4178 14.19548857198887 METEOSAT-12 (MTG-I1) 1 54743U 22170C 26255.15160108 -.00000023 00000+0 00000+0 0 9991 2 54743 0.7779 26.1192 0003744 86.8011 292.3597 1.00271028013853 TIANMU-1 03 1 55973U 23039A 26255.22773735 .00013042 00000+0 23817-3 0 9995 2 55973 97.5261 72.7832 0003533 123.2532 236.9058 15.49539927194306 TIANMU-1 04 1 55974U 23039B 26255.18129566 .00013280 00000+0 23671-3 0 9990 2 55974 97.5193 71.9019 0004712 120.1609 240.0110 15.50221129194310 TIANMU-1 05 1 55975U 23039C 26255.21296799 .00012545 00000+0 22988-3 0 9991 2 55975 97.5244 72.3515 0003337 139.3236 220.8264 15.49451747194285 TIANMU-1 06 1 55976U 23039D 26255.19085250 .00013088 00000+0 23441-3 0 9995 2 55976 97.5245 73.0547 0003506 131.6818 228.4734 15.50093489194316 FENGYUN 3G 1 56232U 23055A 26255.15754757 .00020146 00000+0 31653-3 0 9997 2 56232 49.9908 257.5911 0011941 20.3801 339.7640 15.53505093193527 METEOR-M2 3 1 57166U 23091A 26255.22349586 -.00000002 00000+0 18068-4 0 9998 2 57166 98.6000 308.3838 0002788 279.5207 80.5656 14.24052373166903 TIANMU-1 07 1 57399U 23101A 26255.20048448 .00004534 00000+0 15543-3 0 9996 2 57399 97.2513 303.8850 0002992 150.1157 210.0255 15.30675351174958 TIANMU-1 08 1 57400U 23101B 26255.16703881 .00004399 00000+0 15088-3 0 9996 2 57400 97.2502 303.6103 0004541 149.6099 210.5406 15.30673287174946 TIANMU-1 09 1 57401U 23101C 26255.14931698 .00004561 00000+0 15644-3 0 9993 2 57401 97.2461 302.9628 0003635 160.4094 199.7287 15.30655346174945 TIANMU-1 10 1 57402U 23101D 26255.18235876 .00004518 00000+0 15470-3 0 9992 2 57402 97.2539 304.1376 0004824 164.2438 195.8954 15.30708343174945 FENGYUN 3F 1 57490U 23111A 26255.13940050 .00000025 00000+0 32181-4 0 9990 2 57490 98.6763 323.4953 0001125 115.8272 244.3020 14.19950759161205 ARKTIKA-M 2 1 58584U 23198A 26230.07438779 .00000056 00000+0 00000+0 0 9990 2 58584 63.2129 147.3319 6901614 267.6403 18.7125 2.00593343019562 TIANMU-1 11 1 58645U 23205A 26255.18633198 .00003935 00000+0 14769-3 0 9998 2 58645 97.3429 275.4176 0010225 62.7814 297.4466 15.27751841150807 TIANMU-1 12 1 58646U 23205B 26255.17119850 .00003871 00000+0 14683-3 0 9996 2 58646 97.3420 275.1127 0008795 51.3727 308.8298 15.27423004150782 TIANMU-1 13 1 58647U 23205C 26255.20298046 .00003982 00000+0 15104-3 0 9998 2 58647 97.3446 275.4489 0007052 37.0184 323.1541 15.27414563150789 TIANMU-1 14 1 58648U 23205D 26255.18613167 .00004002 00000+0 15168-3 0 9995 2 58648 97.3384 274.5460 0007928 40.0637 320.1185 15.27436525150782 TIANMU-1 19 1 58660U 23208A 26255.14730080 .00006338 00000+0 20280-3 0 9997 2 58660 97.4577 11.9996 0005042 23.6812 336.4661 15.32761073150644 TIANMU-1 20 1 58661U 23208B 26255.11760262 .00006389 00000+0 19683-3 0 9991 2 58661 97.4521 12.6966 0007215 24.9104 335.2485 15.33955591150744 TIANMU-1 21 1 58662U 23208C 26255.16408992 .00007957 00000+0 22561-3 0 9997 2 58662 97.4587 15.8194 0007001 17.0290 343.1188 15.36496923150916 TIANMU-1 22 1 58663U 23208D 26255.16123556 .00005783 00000+0 18887-3 0 9999 2 58663 97.4573 11.8701 0004473 48.7160 311.4466 15.32146925150646 TIANMU-1 15 1 58700U 24004A 26255.18313148 .00004127 00000+0 15644-3 0 9995 2 58700 97.4667 81.4092 0008107 39.2838 320.8988 15.27423494149052 TIANMU-1 16 1 58701U 24004B 26255.16858787 .00003716 00000+0 14072-3 0 9994 2 58701 97.4618 80.5804 0007076 54.0582 306.1313 15.27529149149058 TIANMU-1 17 1 58702U 24004C 26255.21974024 .00004001 00000+0 15133-3 0 9991 2 58702 97.4644 81.1475 0006710 58.7867 301.4028 15.27524328149055 TIANMU-1 18 1 58703U 24004D 26255.19940328 .00003909 00000+0 14841-3 0 9990 2 58703 97.4660 81.3948 0005920 44.3695 315.8017 15.27422649149053 INSAT-3DS 1 58990U 24033A 26255.14400132 -.00000171 00000+0 00000+0 0 9996 2 58990 0.0430 256.0555 0001249 286.8631 302.1279 1.00273367047945 METEOR-M2 4 1 59051U 24039A 26255.19620677 -.00000005 00000+0 17332-4 0 9991 2 59051 98.7110 213.4372 0005950 281.1922 78.8587 14.22437179131631 GOES 19 1 60133U 24119A 26255.13678101 -.00000263 00000+0 00000+0 0 9997 2 60133 0.0035 20.7833 0000523 236.6149 67.7976 1.00271337007831 MTG-S1 1 64723U 25143A 26255.15160108 -.00000022 00000+0 00000+0 0 9992 2 64723 0.6244 340.0193 0003600 256.0593 169.4025 1.00270708004296 METOP-SGA1 1 65159U 25172A 26255.17164058 .00000027 00000+0 32125-4 0 9990 2 65159 98.7083 313.2713 0000885 89.0718 271.0561 14.21502582056145 FENGYUN 3H 1 65815U 25219A 26254.85505516 .00000023 00000+0 31187-4 0 9996 2 65815 98.6811 193.9527 0001281 103.2423 256.8897 14.19932383049688 MTG-I2 1 A0530U 26198A 26254.93857346 .00000005 00000+0 00000+0 0 9991 2 A0530 1.0032 301.9779 0000260 175.3918 215.0021 1.00269412000202